FW7873 Weather Reports


Display with metric or nautical units.
time (UTC)temp
F
wind
direction
speed
MPH
gust
MPH
rain 1hr
in
rain 24hr
in
rain mn
in
humidity
%
barometer
mb
20260504050104 50 199 3.0 10.0 0.00 0.00 0.00 70 1008.4
20260504044556 50 178 1.0 9.0 0.00 0.00 0.00 69 1008.5
20260504043104 50 219 2.0 7.0 0.00 0.00 0.00 69 1008.5
20260504041558 50 360 2.0 8.0 0.00 0.00 0.00 69 1008.7
20260504040132 50 360 3.0 15.0 0.00 0.00 0.00 69 1008.8
20260504034601 50 139 4.0 12.0 0.00 0.00 0.00 69 1008.9
20260504033056 50 191 3.0 11.0 0.00 0.00 0.00 68 1009.1
20260504031623 51 205 3.0 9.0 0.00 0.00 0.00 67 1009.1
20260504030058 51 360 2.0 12.0 0.00 0.00 0.00 68 1009.4
20260504024603 50 360 3.0 10.0 0.00 0.00 0.00 69 1009.4
20260504023058 50 142 4.0 9.0 0.00 0.00 0.00 69 1009.4
20260504021600 50 154 2.0 8.0 0.00 0.00 0.00 68 1009.5
20260504020112 51 360 2.0 6.0 0.00 0.00 0.00 67 1009.5
20260504014603 51 0 1.0 10.0 0.00 0.00 0.00 67 1009.6
20260504013103 52 168 2.0 8.0 0.00 0.00 0.00 66 1009.5
20260504011600 52 209 1.0 8.0 0.00 0.00 0.00 65 1009.6
20260504004608 53 219 2.0 9.0 0.00 0.00 0.00 64 1009.6
20260504003057 53 207 2.0 11.0 0.00 0.00 0.00 63 1009.7
20260504001556 54 150 3.0 9.0 0.00 0.00 0.00 61 1009.7
20260504000101 55 200 2.0 11.0 0.00 0.00 0.00 60 1010.0
20260503234624 55 360 2.0 11.0 0.00 0.00 0.00 60 1010.0
20260503233059 56 307 2.0 12.0 0.00 0.00 0.00 58 1009.8
20260503231556 57 287 6.0 19.0 0.00 0.00 0.00 57 1009.8
20260503230056 57 223 6.0 20.0 0.00 0.00 0.00 53 1010.0
20260503224557 58 232 5.0 19.0 0.00 0.00 0.00 50 1009.9
20260503223056 59 286 6.0 19.0 0.00 0.00 0.00 49 1010.0
20260503221601 60 84 7.0 17.0 0.00 0.00 0.00 48 1009.9
20260503220055 60 59 2.0 12.0 0.00 0.00 0.00 47 1009.8
20260503214556 60 122 5.0 20.0 0.00 0.00 0.00 45 1009.7
20260503213057 61 179 6.0 21.0 0.00 0.00 0.00 44 1009.7
20260503211559 61 282 5.0 13.0 0.00 0.00 0.00 45 1009.5
20260503210057 61 122 4.0 14.0 0.00 0.00 0.00 44 1009.8
20260503204557 61 218 3.0 12.0 0.00 0.00 0.00 44 1009.9
20260503203058 61 294 3.0 17.0 0.00 0.00 0.00 43 1010.0
20260503201556 62 262 3.0 15.0 0.00 0.00 0.00 43 1010.1
20260503200101 64 263 8.0 19.0 0.00 0.00 0.00 40 1010.3
20260503194601 65 197 5.0 17.0 0.00 0.00 0.00 41 1010.5
20260503193059 63 220 4.0 14.0 0.00 0.00 0.00 40 1010.6
20260503191555 64 132 7.0 15.0 0.00 0.00 0.00 41 1010.8
20260503190055 63 227 7.0 21.0 0.00 0.00 0.00 40 1011.0
20260503183057 62 230 8.0 19.0 0.00 0.00 0.00 40 1011.2
20260503181555 63 269 7.0 17.0 0.00 0.00 0.00 43 1011.4
20260503174559 61 322 7.0 15.0 0.00 0.00 0.00 46 1012.0
20260503173110 60 348 3.0 13.0 0.00 0.00 0.00 43 1012.2
20260503171559 60 236 5.0 16.0 0.00 0.00 0.00 45 1012.4
20260503110110 36 179 1.0 3.0 0.00 0.00 0.00 72 1013.9
20260503081558 34 181 0.0 2.0 0.00 0.00 0.00 74 1015.0
20260503071610 35 0 0.0 0.0 0.00 0.00 0.00 67 1015.1
20260503060116 37 217 1.0 4.0 0.00 0.00 0.00 65 1015.7
20260503054600 37 0 0.0 5.0 0.00 0.00 0.00 66 1015.8
20260503053056 36 254 0.0 4.0 0.00 0.00 0.00 68 1015.8
20260503051555 36 218 0.0 5.0 0.00 0.00 0.00 69 1015.9